Regional Weather Roundup
Issued by NWS

Home | Current Version | Previous Version | Graphics & Text | Print | Product List | Glossary On
Versions: 1 2 3 4 5 6 7 8 9 10 11 12 13 14 15 16 17 18 19 20 21 22 23 24 25 26 27 28 29 30 31 32 33 34 35 36 37 38 39 40 41 42 43 44 45 46 47 48 49 50
000
ASUS43 KMKX 311521
RWRWI

WISCONSIN REGIONAL WEATHER ROUNDUP
NATIONAL WEATHER SERVICE MILWAUKEE/SULLIVAN WI
1000 AM CDT FRI JUL 31 2015

NOTE: "FAIR" INDICATES FEW OR NO CLOUDS BELOW 12,000 FEET WITH NO
SIGNIFICANT WEATHER AND/OR OBSTRUCTIONS TO VISIBILITY.

WIZ001-002-006>008-014>016-023>028-311600-
NORTHWEST WISCONSIN

CITY           SKY/WX    TMP DP  RH WIND       PRES   REMARKS
SUPERIOR ARPT  SUNNY     71  55  57 NW12G17   29.98S
ASHLAND        SUNNY     72  57  59 W9G20     29.96S
HAYWARD        SUNNY     71  54  54 W8        30.00S
SIREN          SUNNY     71  54  55 NW13      30.03S
CUMBERLAND     SUNNY     70  54  56 W13G21    30.03S
RICE LAKE      SUNNY     70  55  59 W12       30.04S
CHETEK         SUNNY     72  56  58 W6G17     30.03S
LADYSMITH      SUNNY     72  55  54 W15       30.02S
EAU CLAIRE     SUNNY     74  54  49 NW14G23   30.02F
MENOMONIE      SUNNY     74  53  47 W18       30.04S
NEW RICHMOND   SUNNY     72  53  51 W16       30.06S
OSCEOLA        SUNNY     72  54  53 W15       30.08S
$$

WIZ003>005-009-010-017-018-311600-
NORTH CENTRAL WISCONSIN

CITY           SKY/WX    TMP DP  RH WIND       PRES   REMARKS
MANITOWISH WTR MOSUNNY   68  55  64 NW13      29.96S
ARBOR VITAE    MOSUNNY   72  58  62 NW12G20   29.96S
WOODRUFF       MOSUNNY   72  58  62 NW12G20   29.96S
RHINELANDER    SUNNY     71  54  54 NW10G22   29.96S
EAGLE RIVER    PTSUNNY   68  54  62 NW13G20   29.94S
LAND O LAKES   MOSUNNY   68  54  60 W12       29.95R
PHILLIPS       SUNNY     69  55  60 NW9G18    29.98F
TOMAHAWK       SUNNY     69  54  59 W12G20    29.98S
MEDFORD        SUNNY     69  56  62 NW13G28   30.00S
MERRILL        NOT AVBL
$$

WIZ029-030-035-036-043>047-311600-
CENTRAL WISCONSIN

CITY           SKY/WX    TMP DP  RH WIND       PRES   REMARKS
WAUSAU         SUNNY     74  54  49 NW14      29.96S
MOSINEE        MOSUNNY   72  55  56 W18G24    29.99S
MARSHFIELD     SUNNY     73  53  49 NW16G25   30.01S
STEVENS POINT  SUNNY     71  53  52 W13G18    29.99R
WAUPACA        SUNNY     77  57  49 W16G25    29.96S
WAUTOMA        SUNNY     78  54  43 NW15G23   29.99S
WISC RAPIDS    SUNNY     75  51  43 NW20G26   30.00S
CAMP DOUGLAS   SUNNY     75  59  57 W16G23    30.02S
$$

WIZ011>013-019>022-031-037>040-048>050-311600-
NORTHEAST WISCONSIN

CITY           SKY/WX    TMP DP  RH WIND       PRES   REMARKS
ANTIGO         MOSUNNY   69  56  64 NW20G26   29.96S
SHAWANO        SUNNY     76  59  56 W7        29.93S
OCONTO         PTSUNNY   75  58  55 W10G18    29.89S
STURGEON BAY   MOSUNNY   73  57  56 W12       29.91S
GREEN BAY      SUNNY     76  61  59 W13       29.91F
MANITOWOC      SUNNY     78  58  49 MISG      29.91F
APPLETON       MOSUNNY   73  55  53 W16       29.95S
CLINTONVILLE   SUNNY     73  55  53 NW10G17   29.94S
OSHKOSH        SUNNY     76  56  49 W14G26    29.95S
$$

WIZ032>034-041-042-053>061-311600-
SOUTHWEST WISCONSIN

CITY           SKY/WX    TMP DP  RH WIND       PRES   REMARKS
LA CROSSE      SUNNY     77  55  46 NW13      30.05R
SPARTA         SUNNY     75  54  47 NW12      30.05S
VIROQUA        SUNNY     73  55  54 NW13      30.07S
BOSCOBEL       SUNNY     80  58  46 NW7       30.05S HX  80
PRAIRIE DU CHI SUNNY     79  52  39 W8        30.06S
PLATTEVILLE    SUNNY     77  64  64 W13       30.07S
$$

WIZ056-057-062-063-064-067-068-311600-
SOUTH CENTRAL WISCONSIN

CITY           SKY/WX    TMP DP  RH WIND       PRES   REMARKS
REEDSBURG      SUNNY     78  53  42 NW13G21   30.02S
BARABOO/DELLS  SUNNY     77  48  35 W14G24    30.02S
LONE ROCK      SUNNY     79  57  46 NW13      30.04S HX  80
MINERAL POINT  SUNNY     77  59  53 W12       30.06F
MADISON        SUNNY     77  59  53 W13G18    30.01S
MIDDLETON      SUNNY     78  57  48 W15       30.02F
WATERTOWN      SUNNY     78  62  58 W15       29.99S
MONROE         SUNNY     77  61  57 W14       30.04F
JANESVILLE     SUNNY     79  63  57 W12G17    30.01S HX  80
$$

WIZ051-052-058>065-066-070>072-311600-
SOUTHEAST WISCONSIN

CITY           SKY/WX    TMP DP  RH WIND       PRES   REMARKS
MILWAUKEE      MOSUNNY   82  57  42 W14G22    29.97F HX  82
WAUKESHA       SUNNY     79  55  44 W12G20    29.99F
MILWAUKEE/TIMM SUNNY     75  54  46 W18       29.97F
RACINE         SUNNY     80  59  48 W8        29.99F HX  81
BURLINGTON     SUNNY     78  58  50 W9        29.99F
KENOSHA        SUNNY     80  64  58 W10       29.99F HX  82
FOND DU LAC    SUNNY     78  56  46 W22G32    29.96S
SHEBOYGAN      SUNNY     78  59  51 W17G23    29.93F
WEST BEND      SUNNY     77  54  44 W17G23    29.97S
JUNEAU         SUNNY     75  58  57 W13G20    29.99F
$$

LSZ147-162-311600-
LAKE SUPERIOR

STATION/POSITION TIME  TEMP    WIND        PRES    WAVE
                       AIR SEA DIR/SP/G            HT/PER
                 (UTC) (F)     (DEG/KT/KT) (MB)    (FT/S)
W MID LAKE BUOY  1450   56 53  250/ 10/ 12 1011.8R   2/ 4
DEVILS ISLAND    1500   60     250/ 16/ 19 1013.3S
PORT WING        1400   66     250/ 14/ 19 1014.6
SAXON HARBOR     1400   68                 1013.5R
$$

LMZ867-665-643>646-311600-
LAKE MICHIGAN

STATION/POSITION TIME  TEMP    WIND        PRES    WAVE
                       AIR SEA DIR/SP/G            HT/PER
                 (UTC) (F)     (DEG/KT/KT) (MB)    (FT/S)
CHAMBERS ISLAND  1400   69     240/  7/ 11 1011.5S
S GREEN BAY BUOY 1500   68 69  270/ 10/ 12 1013.6F
N MID LAKE BUOY  1450   67 68  270/ 12/ 16 1010.5R   2/ 4
NORTHPORT PIER   1400   72     280/  6/ 17 1011.2S
SISTER BAY       1314   74     300/ 15/ 19   N/A
ALGOMA LAKESHORE 1427          330/  7/ 12   N/A
KEWAUNEE LAKESHO 1500   75     300/  9/ 16 1011.7F
SHEBOYGAN LAKESH 1500   77     270/ 11/ 14 1013.3F
PORT WASHINGTON  1400   79     260/  8/ 13 1014.9F
ATWATER BUOY     1500   74 63  280/ 12/ 16 1015.7F
MILWAUKEE LAKESH 1500   78     290/ 13/ 17   N/A
KENOSHA   LAKESH 1500   79     270/ 11/ 15 1014.9F
$$

TC  - TEMPERATURE IN CELSIUS
VSB - VISIBILITY IN STATUTE MILES
WCI - WIND CHILL INDEX
HX  - HEAT INDEX




USA.gov is the U.S. government's official web portal to all federal, state and local government web resources and services.